Real Time Station Status

Last Communication Time: 2024-02-14T07:18:18.063Z

# Data Series Sample Time value Symbol
1 Img Dielectric Perimittivity 2020-09-11T06:10:38+00:00 3.136
2 Real Dielectric Perimittivity 2020-09-11T06:10:38+00:00 7.794
3 Soil Moisture 2023-12-04T22:10:00+00:00 0.111000001431 Wfv
4 Soil Conductivity 2023-12-04T21:40:00+00:00 0.00600000005215 S/m
5 Solar Radiation Inst 2023-12-04T21:40:00+00:00 0.0 W/m2
6 Rainfall 2023-12-04T22:10:00+00:00 0.0 mm
7 Relative Humidity Inst 2023-12-04T21:40:00+00:00 100.0 %
8 Air Temperature Inst 2023-12-04T21:40:00+00:00 23.7000007629 °C
9 Wind Speed Inst 2023-12-04T22:10:00+00:00 1.20000004768 m/s
10 Wind Direction Avg 2023-12-04T22:00:00+00:00 336.709442139 °
11 Relative Humidity Minm 2023-12-04T22:00:00+00:00 100.0 %
12 Relative Humidity Max 2023-12-04T21:50:00+00:00 100.0 %
13 Air Temperature Max 2023-12-04T22:00:00+00:00 23.7000007629 °C
14 Air Temperature Minm 2023-12-04T21:50:00+00:00 23.6000003815 °C
15 Air Temperature Avg 2023-12-04T21:50:00+00:00 23.6899986267 °C
16 Supply Voltage 2023-12-04T22:00:00+00:00 12.5600004196 V
17 Battery Voltage 2023-12-04T22:00:00+00:00 12.8396406174 V
18 Soil Temperature 2023-12-04T22:10:00+00:00 26.7000007629 °C
19 Pressure Inst 2023-12-04T22:10:00+00:00 1008.70001221 hPa
20 Load Current 2023-12-04T22:00:00+00:00 141.940002441 mA
21 Charging Current 2023-12-04T22:00:00+00:00 0.0 mA
22 PV Voltage 2023-12-04T22:00:00+00:00 0.0 V
23 Wind Direction Inst 2023-12-04T22:10:00+00:00 356.299987793 °
24 Wind Speed Avg 2023-12-04T22:10:00+00:00 1.4958562851 m/s
25 Relative Humidity 10 min avg 2023-12-04T22:10:00+00:00 100.0 %
Observation
Select Data Series
To Date
To Date
Action
# Perameter Record Time Value Unit
Todays Statistics
Total Precipitation
-
Current Temperature
-
Current Relative Humidity
-
Current Wind Speed
-
Todays Rainfall Graph
Todays Temperature Graph
Todays Relative Humidity Graph
Todays Wind Speed Graph